weather.gov     
National Weather Service

Terminal Aerodrome Forecast
NWS Homepage
This page is being discontinued on March 12, 2014.
The same data is available at this site. Please update your bookmarks.
Thank you, and we apologize for the inconvenience.
Please send an email to SR-SRH.Webmaster@noaa.gov with any concerns.


Current Version
Previous Version:    01  02  03  04  05  06  07  08  09  10  11  12  13  14  15  16  17  18  19  20  21  22  23  24  25  26  27  28  29  30  
   31  32  33  34  35  36  37  38  39  40  41  42  43  44  45  46  47  48  49  50  51  52  53  54  55  56  57  58  59  60  
[Printable]
960
FTUS42 KGSP 161700
TAFGMU
TAF
KGMU 161723Z 1618/1718 31004KT P6SM VCTS BKN040CB
      TEMPO 1619/1623 VRB10G20KT 4SM TSRA BKN030CB
     FM162300 35003KT P6SM VCTS BKN050CB
     FM170300 00000KT 6SM BR SCT045 SCT250
      TEMPO 1710/1713 4SM BR BKN025
     FM171300 02005KT P6SM SCT030 SCT250=


U.S. Dept. of Commerce
NOAA National Weather Service
1325 East West Highway
Silver Spring, MD 20910
E-mail: w-nws.webmaster@noaa.gov
Page last modified: May 16, 2007
NATIONAL WEATHER SERVICE: for Safety, for Work, for Fun - FOR LIFE